Bloomington, IN

4:16 AM EDT on May 27, 2017 (GMT -0400)
Monroe County

Weather History for KBMG - February, 2014

Change the Weather History Date:

Sunday, February 16, 2014

  Actual Average Record
Temperature  
Mean Temperature 21 °F 33 °F  
Max Temperature 31 °F 43 °F 67 °F (2011)
Min Temperature 10 °F 23 °F -1 °F (2015)
Degree Days  
Heating Degree Days 44 32  
Month to date heating degree days 725 535  
Since 1 July heating degree days 4167 3710  
Cooling Degree Days 0 0  
Month to date cooling degree days 0 0  
Year to date cooling degree days 0 0  
Moisture  
Dew Point 18 °F    
Average Humidity 70    
Maximum Humidity 81    
Minimum Humidity 58    
Precipitation  
Precipitation T in 0.09 in 0.77 in (2006)
Month to date precipitation 1.02 1.70  
Year to date precipitation 3.34 5.01  
Sea Level Pressure  
Sea Level Pressure 30.11 in    
Wind  
Wind Speed 7 mph (NW)    
Max Wind Speed 15 mph    
Max Gust Speed 20 mph    
Visibility 7 miles    
Events Snow    
T = Trace of Precipitation, MM = Missing Value Source: NWS Daily Summary

Daily Weather History Graph

Daily Weather History Graph

Search for Another Location

Airport or City:

Trip Planner

Search our weather history database for the weather conditions in past years. The results will help you decide how hot, cold, wet, or windy it might be!

Date:

Astronomy

Feb. 16, 2014 Rise Set
Actual Time 7:36 AM EST 6:24 PM EST
Civil Twilight 7:09 AM EST 6:52 PM EST
Nautical Twilight 6:38 AM EST 7:23 PM EST
Astronomical Twilight 6:07 AM EST 7:54 PM EST
Moon 8:19 PM EST (2/16) 8:07 AM EST (2/16)
Length of Visible Light 11h 42m
Length of Day
10h 47m
Full, 97% of the Moon is Illuminated
Feb 16
Full
Feb 22
Last Quarter
Mar 1
New
Mar 8
First Quarter
Mar 16
Full

Hourly Weather History & Observations

Time (EST) Temp. Windchill Dew Point Humidity Pressure Visibility Wind Dir Wind Speed Gust Speed Precip Events Conditions
12:04 AM 23.0 °F 17.0 °F 19.9 °F 88% 30.00 in 2.5 mi South 4.6 mph - 0.00 in Snow Light Snow
12:12 AM 23.0 °F 17.0 °F 19.9 °F 88% 30.00 in 4.0 mi South 4.6 mph - 0.00 in Snow Light Snow
12:53 AM 23.0 °F 13.9 °F 19.9 °F 88% 30.01 in 4.0 mi SSE 8.1 mph - 0.00 in   Overcast
1:53 AM 23.0 °F 18.4 °F 19.9 °F 88% 30.02 in 3.0 mi South 3.5 mph - 0.00 in Snow Light Snow
2:53 AM 23.0 °F 18.4 °F 19.9 °F 88% 30.01 in 4.0 mi South 3.5 mph - 0.00 in   Overcast
3:53 AM 25.0 °F 20.7 °F 19.9 °F 81% 29.99 in 6.0 mi SSW 3.5 mph - N/A   Haze
4:26 AM 26.1 °F 19.4 °F 19.9 °F 78% 29.95 in 6.0 mi SW 5.8 mph - N/A   Haze
4:42 AM 26.1 °F 18.4 °F 19.9 °F 78% 29.95 in 7.0 mi SW 6.9 mph - N/A   Overcast
4:53 AM 26.1 °F 18.4 °F 19.9 °F 78% 29.98 in 7.0 mi West 6.9 mph - N/A   Overcast
5:04 AM 26.1 °F 18.4 °F 19.9 °F 78% 29.95 in 7.0 mi WSW 6.9 mph - N/A   Overcast
5:53 AM 27.0 °F 18.7 °F 21.0 °F 78% 29.99 in 7.0 mi West 8.1 mph - N/A   Overcast
6:53 AM 27.0 °F 20.5 °F 21.0 °F 78% 30.00 in 7.0 mi West 5.8 mph - N/A   Overcast
7:53 AM 27.0 °F 19.5 °F 21.0 °F 78% 30.04 in 5.0 mi West 6.9 mph - N/A   Haze
8:53 AM 27.0 °F 18.7 °F 21.0 °F 78% 30.07 in 6.0 mi WNW 8.1 mph - N/A   Haze
9:53 AM 27.0 °F 20.5 °F 21.0 °F 78% 30.09 in 6.0 mi NW 5.8 mph - N/A   Haze
10:53 AM 28.9 °F 22.8 °F 21.0 °F 72% 30.11 in 6.0 mi NW 5.8 mph - N/A   Haze
11:53 AM 30.0 °F 21.1 °F 19.9 °F 66% 30.14 in 8.0 mi NW 10.4 mph - N/A   Overcast
12:53 PM 30.0 °F 23.2 °F 19.9 °F 66% 30.16 in 8.0 mi NNW 6.9 mph - N/A   Overcast
1:50 PM 30.2 °F 20.8 °F 19.4 °F 64% 30.13 in 10.0 mi NNE 11.5 mph - N/A   Scattered Clouds
1:53 PM 30.0 °F 20.0 °F 19.9 °F 66% 30.16 in 10.0 mi North 12.7 mph - N/A   Partly Cloudy
2:53 PM 30.0 °F 22.4 °F 19.0 °F 64% 30.18 in 10.0 mi North 8.1 mph - N/A   Partly Cloudy
3:53 PM 28.0 °F 19.3 °F 17.1 °F 63% 30.19 in 10.0 mi North 9.2 mph - N/A   Clear
4:53 PM 28.0 °F 20.0 °F 16.0 °F 61% 30.21 in 10.0 mi NNE 8.1 mph - N/A   Clear
5:53 PM 25.0 °F 17.1 °F 15.1 °F 66% 30.23 in 10.0 mi North 6.9 mph - N/A   Clear
6:53 PM 23.0 °F 14.7 °F 12.9 °F 65% 30.26 in 10.0 mi NNE 6.9 mph - N/A   Clear
7:53 PM 21.0 °F 13.4 °F 12.0 °F 68% 30.30 in 10.0 mi NNE 5.8 mph - N/A   Clear
8:53 PM 19.9 °F 13.4 °F 12.0 °F 71% 30.29 in 10.0 mi NNE 4.6 mph - N/A   Clear
9:53 PM 19.0 °F 13.9 °F 12.0 °F 74% 30.29 in 10.0 mi East 3.5 mph - N/A   Clear
10:53 PM 19.0 °F 10.0 °F 12.9 °F 77% 30.28 in 8.0 mi East 6.9 mph - N/A   Clear
11:53 PM 19.0 °F 10.0 °F 12.9 °F 77% 30.29 in 7.0 mi ESE 6.9 mph - N/A   Clear